Regional Weather Roundup
Issued by NWS

Home | Current Version | Previous Version | Graphics & Text | Print | Product List | Glossary On
Versions: 1 2 3 4 5 6 7 8 9 10 11 12 13 14 15 16 17 18 19 20 21 22 23 24 25 26 27 28 29 30 31 32 33 34 35 36 37 38 39 40 41 42 43 44 45 46 47 48 49 50
000
ASUS43 KMPX 021001
RWRMN
WEATHER ROUNDUP FOR MINNESOTA
NATIONAL WEATHER SERVICE TWIN CITIES/CHANHASSEN MN
500 AM CDT THU JUL 02 2015


NOTE: "FAIR" INDICATES FEW OR NO CLOUDS BELOW 12,000 FEET WITH NO
SIGNIFICANT WEATHER AND/OR OBSTRUCTIONS TO VISIBILITY. N/A MEANS
CURRENT SKY AND/OR WEATHER CONDITIONS ARE NOT AVAILABLE.

MNZ060>063-068>070-021100-
   Twin Cities Metro

CITY           SKY/WX    TMP DP  RH WIND       PRES   REMARKS
TWIN CITIES    PTCLDY    57  53  86 CALM      30.03R
ST PAUL        CLEAR     55  53  93 CALM      30.03R
CRYSTAL        CLEAR     54  51  90 CALM      30.02R
BLAINE         CLEAR     55  54  94 CALM      30.03R
LAKEVILLE      CLEAR     50  50 100 CALM      30.04R
EDEN PRAIRIE   CLEAR     56  52  86 CALM      30.02R
SOUTH ST PAUL  CLEAR     56  53  91 CALM      30.02R
LAKE ELMO      FAIR      54  54 100 CALM      30.04R
$$
MNZ001>005-007-008-013>017-022>024-027-028-021100-
   Northwest Minnesota

CITY           SKY/WX    TMP DP  RH WIND       PRES   REMARKS
BEMIDJI        CLEAR     58  56  94 CALM      30.00R
HALLOCK        CLEAR     57  55  94 S6        29.94R
ROSEAU         CLEAR     61  55  82 CALM      29.96S
WARROAD        CLEAR     61  55  82 SW5       29.97R
THIEF RVR FALL CLEAR     57  54  88 S5        29.98R
CROOKSTON      CLEAR     59  55  88 S7        29.98
FOSSTON        CLEAR     54  52  94 CALM      30.00R
DETROIT LAKES  CLEAR     61  54  77 S6        30.02S
MOORHEAD       CLEAR     57  55  94 SE6       29.99S
PARK RAPIDS    CLOUDY    59  56  89 SW6       30.02R
$$
MNZ006-009>011-018-025>026-021100-
   North Central Minnesota

CITY           SKY/WX    TMP DP  RH WIND       PRES   REMARKS
BAUDETTE       CLEAR     59  56  89 W3        29.96R
FLAG ISLAND    CLEAR     66  61  82 W14       29.94R
INTL FALLS     CLEAR     54  53  97 CALM      29.96R FOG
WASKISH        CLEAR     66  57  72 W12G17    29.98S
BIG FORK       FOG       52  52 100 CALM      29.99R VSB 3/4
LONGVILLE      CLOUDY    55  55 100 CALM      30.01R
GRAND RAPIDS   MOCLDY    63  55  77 CALM      30.00S
CRANE LAKE     CLEAR     48  48 100 S1        29.99S
ORR            CLEAR     55  54  94 CALM      29.96S
COOK           CLEAR     54  52  94 CALM      29.99S
WALKER         CLOUDY    58  54  85 CALM      30.00R
$$
MNZ012-019>021-037-021100-
   Northeast Minnesota

CITY           SKY/WX    TMP DP  RH WIND       PRES   REMARKS
DULUTH         MOCLDY    58  52  80 SW5       30.01S
ELY            CLEAR     48  46  93 CALM      30.00S
HIBBING        CLEAR     49  48  97 CALM      30.00R
EVELETH        PTCLDY    46  46 100 CALM      30.01S
DULUTH HARBOR  PTCLDY    57  55  94 SW5       30.01S
SILVER BAY     CLEAR     46  45  93 CALM      30.00S
GRAND MARAIS     N/A     49  46  90 CALM      29.99S
G MARAIS ARPRT CLEAR     48  41  76 SW3       30.02S
$$
MNZ029>031-032-039>041-046>048-054>057-064-021100-
   West Central Minnesota

CITY           SKY/WX    TMP DP  RH WIND       PRES   REMARKS
FERGUS FALLS   PTCLDY    57  54  88 S6        30.01S
WHEATON        MOCLDY    54  52  94 SE7       30.01F
MORRIS         MOCLDY    55  54  94 SE6       30.01R
ALEXANDRIA     PTCLDY    56  52  86 S5        30.04R
ELBOW LAKE     FAIR      57  54  89 SE5       30.01S
WADENA           N/A     57  55  94 CALM      30.02S
GLENWOOD       PTCLDY    55  52  88 CALM      30.04R
APPLETON       PTCLDY    54  52  94 E3        30.01S
BENSON         PTCLDY    55  52  88 CALM      30.03R
ORTONVILLE     PTCLDY    54  52  94 SE7       30.01S
MADISON          N/A     52  48  87 CALM      30.01S
WILLMAR        FAIR      54  52  94 CALM      30.05R
$$
MNZ033>034-036-042>043-049>051-058-059-021100-
   Central Minnesota

CITY           SKY/WX    TMP DP  RH WIND       PRES   REMARKS
ST CLOUD       CLEAR     51  50  96 CALM      30.03R
SAUK CENTRE    FAIR      52  51  98 CALM      30.04R FOG
PAYNESVILLE    CLEAR     46  46 100 CALM      30.04R
AITKIN         CLOUDY    55  48  76 CALM      30.00R
PINE RIVER       N/A     61  55  82 CALM      30.05R
BRAINERD       CLOUDY    58  55  90 SE3       30.02R
STAPLES        CLOUDY    59  54  82 CALM      30.03R
LONG PRAIRIE   FAIR      52  50  93 CALM      30.04R
LITTLE FALLS   MOCLDY    52  50  93 CALM      30.03R
LITCHFIELD     CLEAR     54  54 100 CALM      30.04R
BUFFALO        CLEAR     52  49  87 CALM      30.04R
MAPLE LAKE     FAIR      52  51  97 CALM      30.05R
$$
MNZ037-044-045-052-053-021100-
   East Central Minnesota

CITY           SKY/WX    TMP DP  RH WIND       PRES   REMARKS
PRINCETON      CLEAR     52  50  93 CALM      30.03R
MORA             N/A     50  50 100 CALM      30.04R FOG
CAMBRIDGE      CLEAR     55  48  76 CALM      30.01R
RUSH CITY      MOCLDY    52  51  96 CALM      30.02R
MOOSE LAKE     MOCLDY    50  50 100 CALM      30.00S FOG
HINCKLEY       FAIR      52  52 100 CALM      30.01S
CLOQUET        MOCLDY    52  50  93 CALM      30.01S
MCGREGOR       PTCLDY    54  52  94 CALM      30.02R
$$
MNZ071>073-080-081-089-090-097-098-021100-
   Southwest Minnesota

CITY           SKY/WX    TMP DP  RH WIND       PRES   REMARKS
MONTEVIDEO     CLEAR     52  52 100 S3        30.03S
GRANITE FALLS  CLEAR     52  50  93 CALM      30.04R FOG
CANBY            N/A     52  50  95 CALM      30.02S FOG
MARSHALL       CLEAR     54  45  71 E3        30.01R
REDWOOD FALLS  CLEAR     53  52  96 CALM      30.02R
OLIVIA         CLEAR     50  46  87 CALM      30.03R
PIPESTONE      MOCLDY    55  54  94 CALM      30.01S
WINDOM         CLEAR     52  48  87 CALM      30.03R
WORTHINGTON    CLOUDY    54  50  87 CALM      30.02S
JACKSON        CLOUDY    52  50  93 CALM      30.03R
TRACY          CLEAR     57  51  81 S6        30.02R
SLAYTON        CLOUDY    55  55  98 CALM      30.03R
$$
MNZ065>067-074>077-082>085-091>093-021100-
   South Central Minnesota

CITY           SKY/WX    TMP DP  RH WIND       PRES   REMARKS
MANKATO        CLEAR     52  46  82 CALM      30.04R
NEW ULM        CLEAR     52  52 100 CALM      30.03R
ST JAMES       CLEAR     50  48  93 CALM      30.04R
FAIRMONT       CLEAR     50  45  81 CALM      30.02R
GLENCOE        CLEAR     50  49  97 CALM      30.03R
FARIBAULT      CLEAR     48  46  93 CALM      30.05R
OWATONNA       CLEAR     48  46  93 CALM      30.04R
WASECA         CLEAR     45  43  93 N5        30.05R
ALBERT LEA     CLEAR     48  46  93 CALM      30.03R FOG
$$
MNZ078>079-086>088-094>096-021100-
   Southeast Minnesota

CITY           SKY/WX    TMP DP  RH WIND       PRES   REMARKS
ROCHESTER      CLEAR     51  49  92 CALM      30.04R
RED WING       CLEAR     52  50  93 CALM      30.01R
DODGE CENTER   CLEAR     48  46  93 CALM      30.03R
WINONA         FOG       54  54 100 CALM      30.01F VSB 3/4
AUSTIN         CLEAR     48  46  93 CALM      30.04R
PRESTON        CLEAR     50  49  96 CALM      30.03R FOG
$$
ABBREVIATIONS USED IN REMARKS
   TC - TEMPERATURES IN CELSIUS
  WCI - WIND CHILL INDEX
   HX - HEAT INDEX
  VSB - VISIBILITY
$$



USA.gov is the U.S. government's official web portal to all federal, state and local government web resources and services.